Hourly Data Report for October 02, 2017

All times are specified in Local Standard Time (LST). Add 1 hour to adjust for Daylight Saving Time where and when it is observed.

HOLMAN CS
NORTHWEST TERRITORIES

70°45'41.002" N
117°48'00.002" W
29.90 m
2502505
71029
XHI

Download Data

Hourly Data (October 2017)
Hourly Data Report for October 2, 2017
Temp Definition
°C
Dew Point Temp Definition
°C
Rel Hum Definition
%
Wind Dir Definition
10's deg

Wind Spd Definition
km/h
Visibility Definition
km
Stn Press Definition
kPa
Hmdx Definition


Wind Chill Definition


Weather Definition


TIME
00:00 -1.1 -4.3 79 32 31   100.70   -8 LegendNANA
01:00 -1.2 -4.0 81 31 34   100.74   -8 LegendNANA
02:00 -1.4 -4.1 82 32 33   100.81   -9 LegendNANA
03:00 -1.9 -3.4 89 33 41   100.90   -10 LegendNANA
04:00 -2.2 -2.7 96 33 32   100.95   -10 LegendNANA
05:00 -1.8 -3.9 86 33 34   101.00   -9 LegendNANA
06:00 -1.8 -3.9 86 32 32   101.03   -9 LegendNANA
07:00 -2.0 -3.1 92 32 30   101.08   -9 LegendNANA
08:00 -2.1 -4.1 86 33 30   101.14   -9 LegendNANA
09:00 -2.1 -2.9 94 33 33   101.19   -10 LegendNANA
10:00 -1.6 -3.1 90 33 31   101.29   -9 LegendNANA
11:00 -2.0 -3.9 87 34 38   101.36   -10 LegendNANA
12:00 -2.2 -4.5 85 34 34   101.46   -10 LegendNANA
13:00 -2.7 -4.8 85 34 33   101.56   -10 LegendNANA
14:00 -3.6 -5.4 88 35 32   101.68   -11 LegendNANA
15:00 -3.9 -5.6 88 35 29   101.73   -11 LegendNANA
16:00 -4.6 -5.7 92 35 33   101.69   -13 LegendNANA
17:00 -5.0 -5.8 94 1 26   101.67   -12 LegendNANA
18:00 -5.1 -5.8 95 35 28   101.68   -13 LegendNANA
19:00 -6.4 -7.6 91 35 17   101.73   -13 LegendNANA
20:00 -6.3 -7.8 89 1 24   101.66   -14 LegendNANA
21:00 -6.2 -7.7 90 35 21   101.73   -13 LegendNANA
22:00 -4.8 -7.0 85 1 16   101.70   -11 LegendNANA
23:00 -4.3 -6.6 85 35 11   101.70   -9 LegendNANA

Notes on Data Quality.

Legend

  • E = Estimated
  • M = Missing
  • NA = Not Available
  • ‡ = Partner data that is not subject to review by the National Climate Archives
Date modified: